Location: Brachbach
(49.1847°N, 9.7240°E)
Time: 11:32:58
(UTC+00:00)

COSMOS 860 DEB - Pass Details

Date: 03 October 2024
Orbit: 890 x 988 km, 64.7° (Epoch: 09 November)

Event Time Altitude Azimuth Distance (km) Brightness Sun altitude
Rises 18:31:06 0° 311° (NW) 3,630 ? -16.5°
Reaches altitude 10° 18:34:13 10° 326° (NW) 2,700 ? -17.0°
Maximum altitude 18:39:11 23° 18° (NNE) 1,928 ? -17.8°
Enters shadow 18:42:35 16° 58° (ENE) 2,338 ? -18.3°
